Regional Weather Roundup
Issued by NWS

Home | Current Version | Previous Version | Graphics & Text | Print | Product List | Glossary On
Versions: 1 2 3 4 5 6 7 8 9 10 11 12 13 14 15 16 17 18 19 20 21 22 23 24 25 26 27 28 29 30 31 32 33 34 35 36 37 38 39 40 41 42 43 44 45 46 47 48
000
ASUS45 KBOU 190407
RWRCO

WEATHER ROUNDUP FOR COLORADO
NATIONAL WEATHER SERVICE DENVER/BOULDER CO
1000 PM MDT THU SEP 18 2014

NOTE: "FAIR" INDICATES FEW OR NO CLOUDS BELOW 12000 FEET WITH NO
SIGNIFICANT WEATHER AND/OR OBSTRUCTIONS TO VISIBILITY.

COZ001>005-013-030-031-190500-
...NORTHWEST COLORADO...

CITY           SKY/WX    TMP DP  RH WIND       PRES   REMARKS
CRAIG          CLEAR     54  41  61 CALM      30.01R
HAYDEN         CLEAR     61  37  41 CALM      30.03S
MEEKER         CLEAR     57  41  55 CALM      30.04R
MOUNT WERNER   NOT AVBL
STEAMBOAT SPGS CLEAR     61  40  45 NE3       30.06R
WALDEN         PTCLDY    50  36  57 SE8       30.16S
$$

COZ006>008-011-190500-
...WEST CENTRAL VALLEYS...

CITY           SKY/WX    TMP DP  RH WIND       PRES   REMARKS
GRAND JUNCTION CLEAR     65  43  44 E5        29.91R
MONTROSE       CLEAR     68  43  40 SE8       30.02R
EAGLE          PTCLDY    63  41  45 E6        30.07R
RIFLE          CLEAR     64  41  42 E5        29.97R
DELTA          CLEAR     73  40  30 E5        29.96R
NUCLA          CLEAR     64  39  39 E8        30.06R
$$

COZ017>023-064>068-190500-
...SOUTHWEST COLORADO...

CITY           SKY/WX    TMP DP  RH WIND       PRES   REMARKS
DURANGO        CLEAR     62  38  40 CALM      30.08R
CORTEZ         CLEAR     58  47  66 E8        30.03S
PAGOSA SPRINGS CLEAR     57  33  40 CALM      30.17R
TELLURIDE      NOT AVBL
WOLF CREEK PAS PTCLDY    48  30  49 SW8       30.49S
$$

COZ009-010-012-014-032>034-037-058>063-190500-
...CENTRAL COLORADO...

CITY           SKY/WX    TMP DP  RH WIND       PRES   REMARKS
ASPEN          CLEAR     57  39  51 SW10      30.16R
BUENA VISTA    CLEAR     52  30  41 W6        30.21R
COPPER MTN     NOT AVBL
BERTHOUD PASS  FAIR      45  43  93 MISG      30.54S
COTTONWOOD PAS CLEAR     63  23  22 SE18G26   30.34S
GUNNISON       CLEAR     55  34  44 N9        30.18R
KREMMLING      CLEAR     54  36  50 CALM      30.13R
LEADVILLE      PTCLDY    53  27  36 N3        30.32S
MONARCH PASS   CLEAR     48  27  43 E6        30.60R
SALIDA         CLEAR     65  30  26 SW7       30.24R
SUNLIGHT       CLEAR     55  34  44 CALM      30.40S
WILKERSON PASS NOT AVBL
$$

COZ069>075-190500-
...SAN LUIS VALLEY/SANGRE DE CRISTO MOUNTAINS...

CITY           SKY/WX    TMP DP  RH WIND       PRES   REMARKS
ALAMOSA        CLEAR     56  36  47 SE9       30.17R
LA VETA PASS   CLEAR     54  37  54 SE8       30.38S
SAGUACHE       NOT AVBL
$$

COZ035-036-038>040-190500-
...NORTHERN COLORADO FRONT RANGE...

CITY           SKY/WX    TMP DP  RH WIND       PRES   REMARKS
DENVER INTL AP PTCLDY    69  35  28 S14       29.97R
DMNS CITY PARK NOT AVBL
AURORA         CLEAR     72  37  28 S18G24    29.99S
FRONT RANGE AP CLEAR     72  37  28 S16G23    29.99R
ERIE MUNI ARPT NOT AVBL
BOULDER MUN AP CLEAR     70  37  30 S5        29.93F
CENTENNIAL     CLEAR     71  37  28 S17       30.00S
BROOMFIELD     CLEAR     72  37  28 SE9       29.97S
FORT COLLINS   CLEAR     66  45  45 S5        29.93S
LONGMONT       CLEAR     65  42  44 CALM      29.94S
$$

COZ041-046-047-076>085-087-088-190500-
...PIKES PEAK/PALMER DIVIDE AND SOUTHERN FOOTHILLS...

CITY           SKY/WX    TMP DP  RH WIND       PRES   REMARKS
COLO. SPRINGS  CLEAR     65  38  36 S7        30.11R
A. F. ACADEMY  CLEAR     66  37  33 SE15      30.11S
ELLICOTT       NOT AVBL
FALCON         CLEAR     61  41  47 S12       30.17R
FORT CARSON    CLEAR     65  38  37 SW9       30.08R
LIMON          CLEAR     66  48  52 S9        30.04R
MONUMENT HILL  CLEAR     64  39  39 S22G30    30.12S
TRINIDAD       CLEAR     63  52  67 CALM      30.09R
$$

COZ042>045-048>051-090-091-190500-
...NORTHEAST COLORADO...

CITY           SKY/WX    TMP DP  RH WIND       PRES   REMARKS
GREELEY ARPT   CLEAR     68  41  37 S7        29.92S
AKRON          CLEAR     71  46  40 S17G23    29.95S
BURLINGTON     CLEAR     71  53  52 S15       29.97S
WRAY           CLEAR     65  65 100 E6        29.92S
STERLING       CLEAR     72  63  73 S12       29.89R
HOLYOKE        CLEAR     63  61  94 SE7       29.92S
FORT MORGAN    CLEAR     67  42  41 S8        29.93R
$$

COZ086-089-092>099-190500-
...SOUTHEAST COLORADO...

CITY           SKY/WX    TMP DP  RH WIND       PRES   REMARKS
PUEBLO         CLEAR     71  49  45 CALM      29.99R
LA JUNTA       CLEAR     70  54  56 S7        29.99R
LAMAR          CLEAR     65  54  67 CALM      29.97R
SPRINGFIELD      N/A     62  58  86 S9        30.05R
$$


USA.gov is the U.S. government's official web portal to all federal, state and local government web resources and services.